Location: Newark
(35.5300°N, 14.3000°E)
Time: 12:00:47
(UTC+00:00)

Transit 4A - Pass Details

Date: 29 November 2019
Orbit: 871 x 973 km, 66.8° (Epoch: 17 January)

Event Time Altitude Azimuth Distance (km) Brightness Sun altitude
Rises 18:24:20 0° 213° (SSW) 3,630 11.5 -30.8°
Reaches altitude 10° 18:26:55 10° 216° (SW) 2,677 10.7 -31.4°
Enters shadow 18:32:49 66° 280° (W) 1,025 8.2 -32.6°
